星链-35277(STARLINK-35277)

导读

STARLINK-35277是美国SpaceX公司星链(Starlink)星座的卫星,于2025年9月29日发射入轨。星链是全球规模最大的低轨宽带卫星互联网星座,依托紧凑扁平设计和SpaceX可重复火箭技术,可提供高速低延迟宽带服务,覆盖偏远地区,流媒体、视频会议、在线游戏等场景。目前该卫星已在轨运行,持续完善星链星座的全球网络覆盖能力。

基本信息
目录编号:
65832
目录名称:
STARLINK-35277
国际标识:
2025-221K
轨道中心:
EARTH
卫星名称:
星链-35277
卫星全名:
星链-35277(STARLINK-35277)
卫星状态:
在轨 (已飞行340 天)
发射日期:
2025-09-29 UTC
国别 :
美国 (US)
星等 :
--
轨道信息
数据来源 国际轨道数据
星历时间: 2026-09-04T02:44:59+0800
10小时前
查看轨道信息
半长轴: 6840.809km
偏心率: 0.0001314
轨道倾角: 53.161°
近地点辐角 74.290°
升交点赤经 338.038°
平近点角 285.825°
近地点: 461.773km
远地点: 463.571km
周期: 93.847分钟
每日圈数: 15.344108
详细信息
固有亮度:
5
最大亮度:
2.5
卫星平台:
Starlink V1.0
覆盖范围:
全球
运营商:
太空探索技术公司
运营商所在国:
美国
制造商(研发单位):
太空探索技术公司
制造商所在国:
美国
使用方式:
暂无
卫星简介
Starlink 计划是 SpaceX 推出的全球卫星互联网项目,通过发射低轨道卫星,为全球尤其是偏远地区提供高速、低延迟的互联网服务。自 2019 年起,Starlink 已部署数千颗卫星,旨在缩小全球数字鸿沟,推动互联网普及。该项目还为军事、航空等行业提供通信支持,带来广泛经济效益。
2D轨道图
3D轨道图
轨道高度分析图
轨道倾角分析图
轨道综合分析图
查看轨道综合分析图